Westminster, MD

4:58 AM EST on December 11, 2017 (GMT -0500)
Carroll County Regional-Poage

Weather History for KDMW - December, 2013

Change the Weather History Date:

Sunday, December 8, 2013

  Actual Average (KTHV) Record (KTHV)
Temperature  
Mean Temperature 26 °F -  
Max Temperature 28 °F 0 °F 57 °F (2004)
Min Temperature 23 °F - 3 °F (2002)
Degree Days  
Heating Degree Days 40    
Moisture  
Dew Point 21 °F    
Average Humidity 83    
Maximum Humidity 100    
Minimum Humidity 64    
Precipitation  
Precipitation 0.22 in - - ()
Sea Level Pressure  
Sea Level Pressure 30.47 in    
Wind  
Wind Speed 4 mph (NE)    
Max Wind Speed 8 mph    
Max Gust Speed -    
Visibility 5 miles    
Events Snow    
Averages and records for this station are not official NWS values.
T = Trace of Precipitation, MM = Missing Value Source: NWS Daily Summary

Daily Weather History Graph

Daily Weather History Graph

Search for Another Location

Airport or City:

Trip Planner

Search our weather history database for the weather conditions in past years. The results will help you decide how hot, cold, wet, or windy it might be!

Date:

Astronomy

Dec. 08, 2013 Rise Set
Actual Time 7:16 AM EST 4:43 PM EST
Civil Twilight 6:46 AM EST 5:13 PM EST
Nautical Twilight 6:12 AM EST 5:47 PM EST
Astronomical Twilight 5:39 AM EST 6:20 PM EST
Moon 11:36 AM EST (12/8) 11:29 PM EST (12/8)
Length of Visible Light 10h 27m
Length of Day
9h 27m
Waxing Crescent, 40% of the Moon is Illuminated
Dec 8
Waxing Crescent
Dec 9
First Quarter
Dec 17
Full
Dec 25
Last Quarter
Jan 1
New

Hourly Weather History & Observations

Time (EST) Temp. Windchill Dew Point Humidity Pressure Visibility Wind Dir Wind Speed Gust Speed Precip Events Conditions
12:15 AM 26.6 °F 21.2 °F 19.4 °F 74% 30.52 in 10.0 mi North 4.6 mph - N/A   Scattered Clouds
12:35 AM 26.6 °F 21.2 °F 19.4 °F 74% 30.52 in 10.0 mi North 4.6 mph - N/A   Scattered Clouds
12:55 AM 26.6 °F 20.0 °F 19.4 °F 74% 30.52 in 10.0 mi North 5.8 mph - N/A   Clear
1:15 AM 26.6 °F 22.6 °F 19.4 °F 74% 30.53 in 10.0 mi North 3.5 mph - N/A   Clear
1:35 AM 26.6 °F - 19.4 °F 74% 30.53 in 10.0 mi Calm Calm - N/A   Clear
1:55 AM 26.6 °F 19.1 °F 17.6 °F 69% 30.52 in 10.0 mi North 6.9 mph - N/A   Clear
2:15 AM 26.6 °F 21.2 °F 17.6 °F 69% 30.54 in 10.0 mi North 4.6 mph - N/A   Clear
2:35 AM 24.8 °F 16.9 °F 17.6 °F 74% 30.53 in 10.0 mi North 6.9 mph - N/A   Clear
2:55 AM 24.8 °F 16.1 °F 15.8 °F 69% 30.52 in 10.0 mi North 8.1 mph - N/A   Clear
3:15 AM 24.8 °F 16.9 °F 15.8 °F 69% 30.53 in 10.0 mi North 6.9 mph - N/A   Clear
3:35 AM 24.8 °F 17.9 °F 15.8 °F 69% 30.53 in 10.0 mi North 5.8 mph - N/A   Clear
3:55 AM 24.8 °F 19.1 °F 15.8 °F 69% 30.52 in 10.0 mi North 4.6 mph - N/A   Clear
4:15 AM 24.8 °F - 15.8 °F 69% 30.52 in 10.0 mi Calm Calm - N/A   Clear
4:35 AM 24.8 °F 19.1 °F 15.8 °F 69% 30.53 in 10.0 mi North 4.6 mph - N/A   Clear
4:55 AM 24.8 °F 20.5 °F 15.8 °F 69% 30.52 in 10.0 mi NNE 3.5 mph - N/A   Clear
5:15 AM 24.8 °F 19.1 °F 15.8 °F 69% 30.52 in 10.0 mi NNE 4.6 mph - N/A   Clear
5:35 AM 24.8 °F 19.1 °F 17.6 °F 74% 30.53 in 10.0 mi North 4.6 mph - N/A   Clear
5:55 AM 24.8 °F 17.9 °F 17.6 °F 74% 30.53 in 10.0 mi NNE 5.8 mph - N/A   Clear
6:15 AM 24.8 °F 17.9 °F 17.6 °F 74% 30.54 in 10.0 mi NE 5.8 mph - N/A   Mostly Cloudy
6:35 AM 24.8 °F 20.5 °F 17.6 °F 74% 30.54 in 10.0 mi NE 3.5 mph - N/A   Overcast
6:55 AM 24.8 °F 16.9 °F 15.8 °F 69% 30.55 in 10.0 mi ENE 6.9 mph - N/A   Overcast
7:15 AM 26.6 °F 21.2 °F 17.6 °F 69% 30.54 in 10.0 mi ENE 4.6 mph - N/A   Overcast
7:35 AM 24.8 °F 16.1 °F 17.6 °F 74% 30.52 in 10.0 mi ENE 8.1 mph - N/A   Overcast
7:55 AM 24.8 °F 20.5 °F 17.6 °F 74% 30.53 in 10.0 mi NE 3.5 mph - N/A   Overcast
8:15 AM 24.8 °F 20.5 °F 17.6 °F 74% 30.53 in 10.0 mi NE 3.5 mph - N/A   Mostly Cloudy
8:35 AM 26.6 °F 19.1 °F 17.6 °F 69% 30.54 in 10.0 mi NE 6.9 mph - N/A   Scattered Clouds
8:55 AM 26.6 °F 21.2 °F 17.6 °F 69% 30.54 in 10.0 mi ENE 4.6 mph - N/A   Mostly Cloudy
9:15 AM 26.6 °F 22.6 °F 15.8 °F 64% 30.55 in 10.0 mi NE 3.5 mph - N/A   Overcast
9:35 AM 26.6 °F 21.2 °F 17.6 °F 69% 30.55 in 2.5 mi NE 4.6 mph - N/A Snow Light Snow
9:55 AM 24.8 °F 19.1 °F 21.2 °F 86% 30.55 in 0.2 mi East 4.6 mph - N/A Snow Heavy Snow
10:15 AM 23.0 °F 18.4 °F 21.2 °F 93% 30.55 in 0.5 mi ENE 3.5 mph - N/A Snow Snow
10:35 AM 24.8 °F 19.1 °F 21.2 °F 86% 30.54 in 0.5 mi NE 4.6 mph - N/A Snow Light Snow
10:55 AM 24.8 °F 16.1 °F 21.2 °F 86% 30.53 in 0.5 mi ENE 8.1 mph - N/A Snow Light Snow
11:15 AM 24.8 °F - 21.2 °F 86% 30.53 in 0.5 mi Calm Calm - 0.01 in Snow Snow
11:35 AM 24.8 °F 20.5 °F 21.2 °F 86% 30.53 in 0.2 mi ENE 3.5 mph - 0.01 in Snow Heavy Snow
11:55 AM 24.8 °F 17.9 °F 21.2 °F 86% 30.50 in 0.2 mi ENE 5.8 mph - 0.01 in Snow Snow
12:15 PM 23.0 °F - 21.2 °F 93% 30.50 in 0.2 mi Calm Calm - 0.04 in Snow Heavy Snow
12:35 PM 24.8 °F - 21.2 °F 86% 30.49 in 0.2 mi Calm Calm - 0.05 in Snow Heavy Snow
12:55 PM 24.8 °F - 21.2 °F 86% 30.49 in 0.2 mi Calm Calm - N/A Snow Snow
1:15 PM 24.8 °F 20.5 °F 21.2 °F 86% 30.48 in 0.2 mi ENE 3.5 mph - 0.02 in Snow Snow
1:35 PM 24.8 °F 20.5 °F 21.2 °F 86% 30.46 in 0.2 mi East 3.5 mph - 0.02 in Snow Snow
1:55 PM 24.8 °F 20.5 °F 21.2 °F 86% 30.44 in 1.0 mi East 3.5 mph - 0.01 in Snow Light Snow
2:15 PM 24.8 °F - 21.2 °F 86% 30.46 in 1.0 mi Calm Calm - 0.03 in Snow Light Snow
2:35 PM 24.8 °F 16.9 °F 21.2 °F 86% 30.43 in 3.0 mi ENE 6.9 mph - 0.04 in Snow Light Snow
2:55 PM 24.8 °F - 21.2 °F 86% 30.46 in 1.8 mi Calm Calm - N/A Snow Light Snow
3:15 PM 24.8 °F - 21.2 °F 86% 30.46 in 1.0 mi Calm Calm - 0.01 in Snow Light Snow
3:35 PM 24.8 °F - 21.2 °F 86% 30.45 in 1.0 mi Calm Calm - 0.01 in Snow Light Snow
3:55 PM 24.8 °F - 21.2 °F 86% 30.45 in 1.2 mi Calm Calm - N/A Snow Light Snow
4:15 PM 24.8 °F 19.1 °F 21.2 °F 86% 30.43 in 1.0 mi East 4.6 mph - 0.01 in Snow Light Snow
4:35 PM 24.8 °F 20.5 °F 21.2 °F 86% 30.42 in 0.8 mi ENE 3.5 mph - 0.02 in Snow Light Snow
4:55 PM 24.8 °F - 21.2 °F 86% 30.43 in 1.8 mi Calm Calm - 0.01 in Snow Light Snow
5:15 PM 24.8 °F - 23.0 °F 93% 30.42 in 4.0 mi Calm Calm - 0.02 in Snow Light Snow
5:35 PM 24.8 °F - 23.0 °F 93% 30.42 in 4.0 mi Calm Calm - 0.02 in Snow Light Snow
5:55 PM 24.8 °F - 23.0 °F 93% 30.42 in 5.0 mi Calm Calm - 0.01 in Snow Light Snow
6:15 PM 24.8 °F 20.5 °F 23.0 °F 93% 30.41 in 3.0 mi ENE 3.5 mph - 0.01 in   Overcast
6:35 PM 26.6 °F 22.6 °F 24.8 °F 93% 30.41 in 2.0 mi East 3.5 mph - 0.01 in   Overcast
6:55 PM 26.6 °F 21.2 °F 24.8 °F 93% 30.40 in 2.5 mi East 4.6 mph - N/A   Overcast
7:15 PM 26.6 °F 21.2 °F 24.8 °F 93% 30.40 in 2.5 mi East 4.6 mph - 0.01 in   Overcast
7:35 PM 26.6 °F 22.6 °F 24.8 °F 93% 30.38 in 2.5 mi East 3.5 mph - 0.01 in   Overcast
7:55 PM 26.6 °F 20.0 °F 26.6 °F 100% 30.37 in 1.8 mi ESE 5.8 mph - N/A   Overcast
8:15 PM 26.6 °F 22.6 °F 26.6 °F 100% 30.36 in 2.5 mi East 3.5 mph - N/A   Overcast
8:35 PM 28.4 °F - 26.6 °F 93% 30.34 in 2.5 mi Calm Calm - 0.01 in   Overcast
8:55 PM 28.4 °F - 26.6 °F 93% 30.33 in 3.0 mi Calm Calm - N/A   Overcast
9:15 PM 28.4 °F - 26.6 °F 93% 30.34 in 2.0 mi Calm Calm - N/A   Overcast
9:35 PM 28.4 °F - 26.6 °F 93% 30.36 in 1.5 mi Calm Calm - N/A   Overcast
9:55 PM 28.4 °F - 26.6 °F 93% 30.36 in 1.5 mi Calm Calm - N/A   Overcast
10:15 PM 28.4 °F - 26.6 °F 93% 30.34 in 1.2 mi Calm Calm - 0.01 in Snow Snow
10:35 PM 28.4 °F - 26.6 °F 93% 30.32 in 2.5 mi Calm Calm - 0.01 in   Overcast
10:55 PM 28.4 °F - 26.6 °F 93% 30.30 in 4.0 mi Calm Calm - 0.01 in   Overcast
11:15 PM 28.4 °F - 26.6 °F 93% 30.30 in 4.0 mi Calm Calm - 0.01 in   Overcast
11:35 PM 28.4 °F 23.3 °F 26.6 °F 93% 30.29 in 5.0 mi ENE 4.6 mph - 0.01 in   Overcast
11:55 PM 28.4 °F - 28.4 °F 100% 30.29 in 4.0 mi Calm Calm - N/A   Overcast